TIME,DELAY(SENSOR),PRES,OXYGEN,RAWTEMP,T(OPTODE),TCPHASE,FLUOR,BETA(BETA700),BETA(BETA412),BETA(BETA440),CDOM,C(CSC),ED(ED411.90),ED(ED443.80),ED(ED489.40),ED(ED554.70),LU(LU412.20),LU(LU443.80),LU(LU489.40),LU(LU555.00),COMP,TILTX,TILTY,CHECK
1373925706,5807,835.0700073242188000,146.5514068603515600,444.7361145019531000,9.2345209121704100,40.7746810913085940,53,121,75,74,75,9911,2146961682,2147519533,2147290578,2147503122,2147086070,2146923419,2147705344,2147123702,1186,-1,8,38152
1373929302,5803,933.0499877929688000,169.5155944824218800,503.4318847656250000,7.4229807853698730,39.9948997497558600,53,120,75,72,76,9913,2146959140,2147521270,2147293851,2147515501,2147087222,2146919862,2147714642,2147121142,3197,-1,8,3698
1373932902,5804,947.7100219726562000,173.1613006591797000,511.6187133789062500,7.1685781478881840,39.8770103454589840,54,121,74,73,76,9906,2146965632,2147519469,2147296310,2147511451,2147086208,2146922934,2147720576,2147120621,2823,-1,8,9497
1373936502,5807,973.6799926757812000,188.6118011474609400,521.1604003906250000,6.8714799880981445,38.9941711425781250,54,124,76,74,77,9902,2146962057,2147520210,2147295881,2147517750,2147083904,2146919341,2147717485,2147118829,3232,-1,8,55052
1373940102,5805,972.5499877929688000,173.9575042724609400,523.5961303710938000,6.7955379486083980,40.0311088562011700,53,122,75,72,77,9900,2146963940,2147519268,2147296621,2147515062,2147086500,2146923437,2147720950,2147118336,151,-1,8,54353
1373943702,5802,979.3200073242188000,177.2265930175781200,524.3690795898438000,6.7714271545410160,39.8166999816894500,52,122,75,73,76,9900,2146966244,2147520109,2147298432,2147516662,2147087277,2146918701,2147720192,2147120813,3359,-1,8,61343
1373947302,5805,981.1799926757812000,179.9364929199218800,524.7708740234375000,6.7588911056518555,39.6372985839843750,54,122,75,74,75,9898,2146962422,2147521618,2147299492,2147516873,2147087433,2146920000,2147722185,2147118308,1305,-1,8,60731
1373950902,5806,979.9799804687500000,179.8493957519531200,525.2678222656250000,6.7433910369873050,39.6518592834472660,53,125,76,73,76,9901,2146963867,2147522057,2147299986,2147517595,2147085522,2146923968,2147718336,2147123108,189,0,8,40805
1373954502,5808,981.0100097656250000,160.6707000732422000,526.3582763671875000,6.7093601226806640,41.0468101501464840,53,124,75,74,75,9879,2146963254,2147522203,2147302080,2147517860,2147086116,2146919360,2147722230,2147118976,50,-1,8,33604
1373958102,5807,984.8200073242188000,179.5570068359375000,526.6066894531250000,6.7016110420227050,39.6967506408691400,53,126,75,74,76,9885,2146964644,2147517796,2147299529,2147519305,2147085101,2146913243,2147718317,2147120283,184,-1,8,51596
1373961702,5806,980.4199829101562000,178.3784027099609400,526.5023193359375000,6.7048659324646000,39.7755699157714840,54,126,75,75,76,9880,2146963958,2147520822,2147302326,2147519478,2147083638,2146920960,2147718674,2147120420,3330,-1,8,49625
1373965302,5806,978.4400024414062000,178.3509979248047000,528.0305175781250000,6.6571660041809080,39.8046607971191400,53,125,76,75,76,9881,2146960704,2147514084,2147299218,2147516717,2147086454,2146917577,2147717860,2147120987,3554,0,8,63272
1373968902,5807,976.7399902343750000,175.5115966796875000,529.4973144531250000,6.6113619804382320,40.0274696350097660,54,125,75,74,76,9882,2146961737,2147521069,2147298331,2147519552,2147089088,2146917001,2147722404,2147118372,151,-1,8,40827
1373972502,5804,977.5800170898438000,163.3016052246093800,530.1884155273438000,6.5897750854492190,40.9177589416503900,53,125,76,74,77,9876,2146966290,2147522386,2147298752,2147522240,2147084059,2146917632,2147720402,2147121874,163,0,8,22439
1373976102,5805,982.5399780273438000,172.9174041748047000,530.2656250000000000,6.5873641967773440,40.2236709594726560,54,128,76,73,77,9873,2146961508,2147520996,2147298925,2147519469,2147088219,2146916178,2147723556,2147120356,34,-1,8,39719
1373979702,5804,983.5900268554688000,204.1094970703125000,528.2788085937500000,6.6494121551513670,38.1477699279785160,53,126,75,74,75,9737,2146963126,2147522386,2147297060,2147515227,2147086601,2146914523,2147722249,2147120594,2830,-1,8,44122
1373983302,5807,983.7399902343750000,204.5704040527343800,528.9708862304688000,6.6278018951416020,38.1319389343261700,54,131,74,75,76,9732,2146962523,2147521197,2147299273,2147516571,2147088237,2146918336,2147723556,2147123885,2829,-1,8,64249
1373986902,5806,980.0300292968750000,194.2866973876953000,530.2482299804688000,6.5879077911376950,38.7909202575683600,53,127,75,73,76,9727,2146963785,2147520960,2147298971,2147520365,2147086290,2146915392,2147719186,2147121865,2806,-1,8,65000
1373990502,5808,974.6400146484375000,200.8520965576172000,530.9586181640625000,6.5657181739807130,38.3933715820312500,53,126,75,74,76,9724,2146962660,2147523126,2147299190,2147518400,2147087542,2146917988,2147721353,2147122925,398,-1,8,62506
1373994102,5809,971.2399902343750000,193.8773040771484400,533.1630249023438000,6.4968261718750000,38.8690490722656250,54,128,74,74,77,9732,2146965083,2147519643,2147300370,2147518884,2147088173,2146918116,2147721947,2147122038,60,-1,8,7190
1373997702,5808,968.3300170898438000,202.5332946777343800,535.2717285156250000,6.4308948516845700,38.3677902221679700,54,128,74,74,77,9729,2146964699,2147519168,2147298377,2147517778,2147087012,2146915300,2147720722,2147122020,60,0,8,13857
1374001302,5803,968.5800170898438000,196.5113983154297000,536.2988281250000000,6.3987669944763180,38.7599296569824200,54,127,75,73,75,9730,2146964818,2147519204,2147300114,2147520283,2147085686,2146914422,2147720438,2147124041,3496,-1,8,58052
1374004902,5803,970.3900146484375000,207.5010986328125000,535.3018188476562000,6.4299530982971190,38.0701408386230500,54,129,75,74,76,9729,2146962413,2147518811,2147303844,2147519277,2147084544,2146914450,2147722569,2147119378,431,-1,8,34067
1374008502,5807,975.6300048828125000,214.1660003662109400,535.0720214843750000,6.4371409416198730,37.6753997802734400,54,130,75,74,76,9726,2146960265,2147521609,2147298816,2147517622,2147088512,2146919990,2147722358,2147119506,502,-1,8,22464
1374012102,5805,982.1300048828125000,206.7353973388672000,534.1254272460938000,6.4667420387268070,38.0936813354492200,53,128,75,75,77,9727,2146963154,2147521325,2147300425,2147516324,2147084644,2146913581,2147719524,2147122157,3248,-1,8,54830
1374015702,5808,981.2199707031250000,215.3937988281250000,532.1209716796875000,6.5293941497802730,37.5520401000976560,55,130,75,74,76,9703,2146964571,2147519341,2147302290,2147517952,2147086628,2146920347,2147721060,2147119021,105,-1,8,60825
1374019302,5805,979.8099975585938000,209.2348022460937500,532.7365112304688000,6.5101590156555180,37.9207191467285160,55,134,76,75,77,9703,2146964096,2147521389,2147301193,2147518125,2147084992,2146918994,2147722075,2147121563,57,-1,8,21451
1374022902,5803,987.7800292968750000,214.8585968017578000,531.1552734375000000,6.5595722198486330,37.5647583007812500,53,127,75,74,77,9700,2146963721,2147520329,2147300050,2147517494,2147088996,2146917522,2147724132,2147121161,3286,-1,8,24799
1374026502,5805,985.3499755859375000,210.2991027832031200,530.6967773437500000,6.5738959312438965,37.8218803405761700,53,130,75,74,75,9701,2146961846,2147521581,2147298505,2147518838,2147088301,2146919259,2147722221,2147120000,3267,-1,8,12063
1374030102,5809,985.1500244140625000,213.8103942871093800,530.8463745117188000,6.5692200660705570,37.6194610595703100,53,131,75,74,76,9701,2146965613,2147522505,2147299821,2147517851,2147087460,2146917074,2147719506,2147121216,3572,-1,8,27019
1374033702,5804,978.3499755859375000,205.0121002197265600,532.7471923828125000,6.5098252296447750,38.1730995178222660,54,157,76,75,76,9693,2146962953,2147518838,2147299620,2147522020,2147088640,2146917037,2147723437,2147118884,3377,-1,8,54236
1374037302,5806,976.3400268554688000,198.7171936035156200,534.7412719726562000,6.4474811553955080,38.5932388305664060,53,128,75,76,76,9697,2146962834,2147520402,2147296768,2147518226,2147087780,2146922852,2147724288,2147119926,3557,-1,8,38811
1374040902,5807,972.4299926757812000,212.0348968505859400,535.2127075195312000,6.4327411651611330,37.8012199401855500,54,129,75,75,76,9698,2146964333,2147522624,2147298166,2147519396,2147090258,2146922102,2147724169,2147120384,112,-1,8,45999
1374044502,5804,976.0200195312500000,214.9461059570312500,535.6459960937500000,6.4191889762878420,37.6408309936523440,54,132,76,74,77,9682,2146964534,2147520045,2147296987,2147517430,2147089298,2146923328,2147722002,2147119350,3510,-1,8,39251
1374048102,5804,976.5399780273438000,210.4376983642578000,535.5665283203125000,6.4216752052307130,37.9009399414062500,53,129,75,73,76,9682,2146963200,2147525001,2147300013,2147517376,2147088804,2146918756,2147723254,2147120576,3555,-1,8,18829
1374051702,5804,975.5300292968750000,210.6988067626953000,535.5864868164062000,6.4210510253906250,37.8858985900878900,54,128,76,73,76,9681,2146961344,2147520685,2147301732,2147518116,2147088941,2146913188,2147724964,2147121389,3467,-1,8,46177
1374055302,5805,975.6900024414062000,212.1483001708984400,536.4038696289062000,6.3954830169677730,37.8160591125488300,55,129,76,75,77,9679,2146962816,2147519908,2147303588,2147515922,2147089910,2146917650,2147722642,2147120402,3378,-1,8,4623
1374058902,5805,977.2199707031250000,207.8280944824218800,536.0510864257812000,6.4065170288085940,38.0633506774902340,54,131,74,74,76,9679,2146965613,2147521225,2147300132,2147517705,2147089152,2146915830,2147724397,2147121188,3522,-1,8,17266
1374062502,5805,981.7500000000000000,215.2378997802734400,535.1171875000000000,6.4357280731201170,37.6140708923339840,54,131,75,73,76,9680,2146962651,2147521170,2147302729,2147517714,2147086400,2146915538,2147720448,2147120685,555,-1,8,20165
1374066102,5805,976.8599853515625000,203.6067047119140600,536.1497802734375000,6.4034290313720700,38.3189315795898440,57,134,75,72,77,9674,2146965805,2147521865,2147302564,2147517622,2147088429,2146916068,2147725147,2147119488,3295,-1,8,60016
1374069656,5805,982.4199829101562000,211.9951019287109400,535.7891235351562000,6.4147129058837890,37.8138885498046900,54,132,75,76,75,9888,2146964278,2147520804,2147300544,2147517586,2147087094,2146917376,2147724864,2147122066,3594,-1,8,46135
